This is the latest recevied weather packets stored in our database for station/object W4ZHA. If no packets are shown the sender has not sent any weather packets the latest 10 day(s).
| Time | Temp. | Humidity | Pressure | Rain* | Wind** | Luminosity | Snow |
|---|---|---|---|---|---|---|---|
| 1777849882 | 20.56° C | 55% | 1016.8 hPa | 0 mm | - | 35 W/m² | - |
| 1777849579 | 20.56° C | 55% | 1016.8 hPa | 0 mm | - | 37 W/m² | - |
| 1777849277 | 20.56° C | 53% | 1017.2 hPa | 0 mm | - | 43 W/m² | - |
| 1777848974 | 20.56° C | 52% | 1017.2 hPa | 0 mm | - | 63 W/m² | - |
| 1777848673 | 20.56° C | 50% | 1016.8 hPa | 0 mm | - | 45 W/m² | - |
| 1777848371 | 21.11° C | 49% | 1016.8 hPa | 0 mm | - | 50 W/m² | - |
| 1777848069 | 21.67° C | 48% | 1017.2 hPa | 0 mm | - | 295 W/m² | - |
| 1777847767 | 21.67° C | 47% | 1017.2 hPa | 0 mm | - | 319 W/m² | - |
| 1777847462 | 21.67° C | 48% | 1017.2 hPa | 0 mm | - | 332 W/m² | - |
| 1777847160 | 22.22° C | 47% | 1017.2 hPa | 0 mm | - | 343 W/m² | - |
| 1777846858 | 22.22° C | 47% | 1017.6 hPa | 0 mm | - | 348 W/m² | - |
| 1777846556 | 21.67° C | 48% | 1017.2 hPa | 0 mm | - | 358 W/m² | - |
| 1777846253 | 21.67° C | 48% | 1017.2 hPa | 0 mm | - | 363 W/m² | - |
| 1777845949 | 21.11° C | 47% | 1017.2 hPa | 0 mm | - | 363 W/m² | - |
| 1777845646 | 20.56° C | 49% | 1017.2 hPa | 0 mm | - | 374 W/m² | - |
| 1777845343 | 21.67° C | 48% | 1017.2 hPa | 0 mm | - | 387 W/m² | - |
| 1777845040 | 21.67° C | 48% | 1017.2 hPa | 0 mm | - | 390 W/m² | - |
| 1777844739 | 21.11° C | 48% | 1017.2 hPa | 0 mm | - | 397 W/m² | - |
| 1777844435 | 22.22° C | 47% | 1017.2 hPa | 0 mm | - | 407 W/m² | - |
| 1777844133 | 22.78° C | 47% | 1017.2 hPa | 0 mm | - | 410 W/m² | - |
| 1777843830 | 21.11° C | 48% | 1017.6 hPa | 0 mm | - | 413 W/m² | - |
| 1777843527 | 20.56° C | 49% | 1017.6 hPa | 0 mm | - | 412 W/m² | - |
| 1777843225 | 21.11° C | 50% | 1017.6 hPa | 0 mm | - | 416 W/m² | - |
| 1777842921 | 21.11° C | 48% | 1017.9 hPa | 0 mm | - | 426 W/m² | - |
| 1777842617 | 21.67° C | 48% | 1017.9 hPa | 0 mm | - | 435 W/m² | - |
* Rain latest hour (hover to see other rain measurements)
** Current wind speed in m/s (hover to see current wind gust speed)